Hourly Data Report for May 04, 2017

FISHER BRANCH (AUT)
MANITOBA

51°05'00.100" N
97°33'16.200" W
253.00 m
50309J6
71442
WSZ

Download Data

Hourly Data (May 2017)
Hourly Data Report for May 4, 2017
TIME
LST
Temp Definition
°C
Dew Point Definition
°C
Rel Hum Definition
%
Precip. Amount Definition
mm

Wind Dir Definition
10's deg

Wind Spd Definition
km/h
Visibility Definition
km
Stn Press Definition
kPa
Hmdx Definition


Wind Chill Definition


Weather Definition


00:00 8.7 3.6 71 0.0 5 3   98.71     LegendNANA
01:00 7.8 4.0 77 0.0 2 6   98.73     LegendNANA
02:00 6.2 3.7 84 0.0 35 7   98.72     LegendNANA
03:00 6.3 4.1 86 0.0 3 4   98.72     LegendNANA
04:00 4.6 3.1 89 0.0 10 3   98.70     LegendNANA
05:00 4.3 3.0 91 0.0 1 7   98.74     LegendNANA
06:00 5.8 3.6 86 0.0 8 4   98.80     LegendNANA
07:00 7.3 4.3 81 0.0 9 6   98.83     LegendNANA
08:00 9.5 5.2 74 0.0 11 5   98.81     LegendNANA
09:00 11.8 4.9 62 0.0 11 10   98.79     LegendNANA
10:00 13.7 4.0 52 0.0 10 8   98.78     LegendNANA
11:00 15.6 2.7 42 0.0 22 5   98.75     LegendNANA
12:00 17.1 1.8 36 0.0 30 7   98.70     LegendNANA
13:00 18.0 -0.1 29 0.0 26 7   98.66     LegendNANA
14:00 18.8 0.2 29 0.0 27 11   98.60     LegendNANA
15:00 19.2 0.2 28 0.0 26 12   98.56     LegendNANA
16:00 19.8 -1.9 23 0.0 24 10   98.49     LegendNANA
17:00 19.3 -1.5 25 0.0 20 7   98.46     LegendNANA
18:00 16.6 4.7 45 0.0 12 17   98.39     LegendNANA
19:00 14.7 4.6 51 0.0 14 17   98.32     LegendNANA
20:00 13.8 3.6 50 0.0 15 15   98.26     LegendNANA
21:00 13.2 4.1 54 0.0 16 12   98.23     LegendNANA
22:00 11.9 4.0 58 0.0 17 10   98.18     LegendNANA
23:00 12.9 2.8 51 0.0 20 10   98.15     LegendNANA

Notes on Data Quality.

Legend

  • E = Estimated
  • M = Missing
  • NA = Not Available*
  • [empty] = Indicates an unobserved value
Date modified: